DW8004 Weather Reports


time (UTC)temp
C
wind
direction
speed
KPH
gust
KPH
rain 1hr
cm
rain 24hr
cm
rain mn
cm
humidity
%
barometer
mb
20260904194536 23 211 0.0 0.0 0.00 0.00 0.00 63 1009.0
20260904193047 22 208 0.0 0.0 0.00 0.00 0.00 64 1009.0
20260904191549 22 298 0.0 0.0 0.00 0.00 0.00 68 1009.2
20260904190017 22 220 0.0 0.0 0.00 0.00 0.00 67 1009.1
20260904184549 23 226 0.0 0.0 0.00 0.00 0.00 64 1009.3
20260904183017 23 219 0.0 0.0 0.00 0.00 0.00 64 1009.3
20260904181553 22 213 0.0 0.0 0.00 0.00 0.00 67 1009.5
20260904180109 22 232 0.0 0.0 0.00 0.00 0.00 65 1009.7
20260904174613 22 254 0.0 0.0 0.00 0.00 0.00 65 1009.5
20260904173038 22 216 0.0 0.0 0.00 0.00 0.00 65 1009.5
20260904171526 22 157 0.0 0.0 0.00 0.00 0.00 66 1009.7
20260904170014 22 84 0.0 0.0 0.00 0.00 0.00 66 1009.9
20260904164502 22 263 0.0 0.0 0.00 0.00 0.00 65 1009.8
20260904163026 22 180 0.0 0.0 0.00 0.00 0.00 64 1009.8
20260904161530 22 301 0.0 0.0 0.00 0.00 0.00 65 1010.0
20260904160054 21 206 0.0 0.0 0.00 0.00 0.00 67 1010.0
20260904154550 21 257 0.0 0.0 0.00 0.00 0.00 68 1010.3
20260904153050 21 223 0.0 0.0 0.00 0.00 0.00 69 1010.1
20260904151540 21 219 0.0 0.0 0.00 0.00 0.00 72 1010.3
20260904150051 21 66 0.0 0.0 0.00 0.00 0.00 73 1010.5
20260904144632 21 236 0.0 0.0 0.00 0.00 0.00 72 1010.3
20260904143102 21 205 0.0 0.0 0.00 0.00 0.00 74 1010.4
20260904141555 20 153 0.0 0.0 0.00 0.00 0.00 77 1010.5
20260904140058 20 215 0.0 0.0 0.00 0.00 0.00 82 1010.5
20260904134549 19 232 0.0 0.0 0.00 0.00 0.00 83 1010.5
20260904133038 19 252 0.0 0.0 0.00 0.00 0.00 84 1010.8
20260904131540 18 213 0.0 0.0 0.00 0.00 0.00 86 1010.7
20260904130046 18 9 0.0 0.0 0.00 0.00 0.00 90 1010.7
20260904124535 18 207 0.0 0.0 0.00 0.00 0.00 94 1010.6
20260904123045 17 200 0.0 0.0 0.00 0.00 0.00 97 1010.6
20260904121517 16 200 0.0 0.0 0.00 0.00 0.00 98 1010.5
20260904120048 15 200 0.0 0.0 0.00 0.00 0.00 98 1010.4
20260904114544 13 200 0.0 0.0 0.00 0.00 0.00 98 1010.3
20260904113049 12 200 0.0 0.0 0.00 0.00 0.00 98 1010.3
20260904111555 12 200 0.0 0.0 0.00 0.00 0.00 97 1010.3
20260904110033 12 200 0.0 0.0 0.00 0.00 0.00 97 1010.4
20260904104535 12 200 0.0 0.0 0.00 0.00 0.00 97 1010.2
20260904103012 12 200 0.0 0.0 0.00 0.00 0.00 97 1010.2
20260904101608 12 200 0.0 0.0 0.00 0.00 0.00 97 1010.2
20260904100057 12 200 0.0 0.0 0.00 0.00 0.00 97 1009.9
20260904094540 12 200 0.0 0.0 0.00 0.00 0.00 97 1009.9
20260904093005 12 200 0.0 0.0 0.00 0.00 0.00 97 1009.8
20260904091557 12 200 0.0 0.0 0.00 0.00 0.00 97 1009.8
20260904090000 13 200 0.0 0.0 0.00 0.00 0.00 97 1009.8
20260904084559 12 200 0.0 0.0 0.00 0.00 0.00 97 1009.8
20260904083041 13 200 0.0 0.0 0.00 0.00 0.00 97 1009.8
20260904081522 13 200 0.0 0.0 0.00 0.00 0.00 97 1009.9
20260904080106 13 200 0.0 0.0 0.00 0.00 0.00 97 1009.8
20260904074601 13 200 0.0 0.0 0.00 0.00 0.00 97 1010.0
20260904073032 13 200 0.0 0.0 0.00 0.00 0.00 97 1010.2
20260904071501 13 200 0.0 0.0 0.00 0.00 0.00 97 1010.4
20260904070055 13 200 0.0 0.0 0.00 0.00 0.00 97 1010.4
20260904064539 13 200 0.0 0.0 0.00 0.00 0.00 97 1010.4
20260904063043 13 200 0.0 0.0 0.00 0.00 0.00 96 1010.4
20260904061631 13 200 0.0 0.0 0.00 0.00 0.00 96 1010.4
20260904060135 13 200 0.0 0.0 0.00 0.00 0.00 96 1010.5
20260904054549 13 200 0.0 0.0 0.00 0.00 0.00 96 1010.6
20260904053032 14 200 0.0 0.0 0.00 0.00 0.00 96 1010.8
20260904051502 14 200 0.0 0.0 0.00 0.00 0.00 96 1011.2
20260904050040 14 200 0.0 0.0 0.00 0.00 0.00 96 1011.3
20260904044508 14 200 0.0 0.0 0.00 0.00 0.00 96 1011.3
20260904043112 14 200 0.0 0.0 0.00 0.00 0.00 96 1011.2
20260904041552 15 200 0.0 0.0 0.00 0.00 0.00 96 1011.1
20260904040028 15 200 0.0 0.0 0.00 0.00 0.00 95 1011.3
20260904034559 15 200 0.0 0.0 0.00 0.00 0.00 95 1011.1
20260904033047 15 200 0.0 0.0 0.00 0.00 0.00 95 1011.3
20260904031539 15 200 0.0 0.0 0.00 0.00 0.00 96 1011.4
20260904030006 16 200 0.0 0.0 0.00 0.00 0.00 96 1011.5
20260904024608 16 200 0.0 0.0 0.00 0.00 0.00 95 1011.7
20260904023052 16 200 0.0 0.0 0.00 0.00 0.00 95 1011.5
20260904021526 16 200 0.0 0.0 0.00 0.00 0.00 96 1011.7
20260904020030 16 200 0.0 0.0 0.00 0.00 0.00 95 1011.8
20260904014521 17 200 0.0 0.0 0.00 0.00 0.00 95 1011.7
20260904013007 17 200 0.0 0.0 0.00 0.00 0.00 95 1011.8
20260904011606 17 200 0.0 0.0 0.00 0.00 0.00 95 1011.7
20260904010057 17 200 0.0 0.0 0.00 0.00 0.00 95 1011.8
20260904004603 17 200 0.0 0.0 0.00 0.00 0.00 95 1011.6
20260904003029 17 200 0.0 0.0 0.00 0.00 0.00 95 1011.4
20260904001507 18 200 0.0 0.0 0.00 0.00 0.00 94 1011.2
20260903234553 18 200 0.0 0.0 0.00 0.00 0.00 94 1010.8
20260903233057 18 200 0.0 0.0 0.00 0.00 0.00 94 1010.5
20260903231609 18 200 0.0 0.0 0.00 0.00 0.00 93 1010.7
20260903230045 19 200 0.0 0.0 0.00 0.00 0.00 92 1010.7
20260903224540 20 200 0.0 0.0 0.00 0.00 0.00 92 1010.8
20260903223009 20 200 0.0 0.0 0.00 0.00 0.00 90 1010.8
20260903221539 21 200 0.0 0.0 0.00 0.00 0.00 87 1010.7
20260903220031 22 200 0.0 0.0 0.00 0.00 0.00 84 1010.7
20260903214534 22 236 0.0 0.0 0.00 0.00 0.00 82 1010.7
20260903213006 22 215 0.0 0.0 0.00 0.00 0.00 82 1011.1
20260903211535 22 209 0.0 0.0 0.00 0.00 0.00 84 1010.8
20260903210100 23 236 0.0 0.0 0.00 0.00 0.00 83 1010.8
20260903204559 23 348 0.0 0.0 0.00 0.00 0.00 82 1010.8
20260903203053 22 170 0.0 0.0 0.00 0.00 0.00 84 1011.0
20260903201526 22 232 0.0 0.0 0.00 0.00 0.00 83 1011.0
20260903200045 22 253 0.0 0.0 0.00 0.00 0.00 82 1011.0